GW5249 Weather Reports


Display with metric or nautical units.
time (UTC)temp
F
wind
direction
speed
MPH
gust
MPH
rain 1hr
in
rain 24hr
in
rain mn
in
humidity
%
barometer
mb
20260504050444 46 3 0.0 0.0 0.00 0.02 0.02 97 1014.8
20260504045941 46 3 0.0 0.0 0.07 0.02 0.02 97 1014.8
20260504045437 46 3 1.0 1.0 0.07 0.02 0.02 96 1015.0
20260504044933 45 3 0.0 0.0 0.00 0.01 0.01 96 1015.0
20260504044431 46 3 0.0 0.0 0.00 0.01 0.01 95 1015.3
20260504043928 46 3 0.0 0.0 0.05 0.01 0.01 92 1015.4
20260504043425 46 3 0.0 0.0 0.00 0.00 0.00 89 1015.2
20260504042923 47 3 0.0 0.0 0.00 0.00 0.00 87 1015.5
20260504042419 47 267 0.0 0.0 0.00 0.00 0.00 83 1015.1
20260504041916 47 220 0.0 0.0 0.00 0.00 0.00 81 1015.1
20260504041412 47 220 0.0 0.0 0.00 0.00 0.00 81 1014.9
20260504040908 47 220 0.0 0.0 0.00 0.00 0.00 81 1014.8
20260504040406 47 220 0.0 0.0 0.00 0.00 0.00 80 1014.6
20260504035901 47 220 0.0 0.0 0.00 0.00 0.00 81 1015.0
20260504035359 47 220 0.0 0.0 0.00 0.00 0.00 82 1014.4
20260504034855 47 220 0.0 0.0 0.00 0.00 0.00 81 1014.7
20260504034353 47 220 0.0 0.0 0.00 0.00 0.00 81 1014.7
20260504033850 46 220 0.0 0.0 0.00 0.00 0.00 81 1014.8
20260504033348 46 220 0.0 0.0 0.00 0.00 0.00 80 1014.4
20260504032844 46 220 0.0 0.0 0.00 0.00 0.00 81 1014.7
20260504032341 46 220 0.0 0.0 0.00 0.00 0.00 80 1014.5
20260504031838 46 220 0.0 0.0 0.00 0.00 0.00 80 1014.7
20260504031335 46 220 0.0 0.0 0.00 0.00 0.00 80 1014.6
20260504030831 46 220 0.0 0.0 0.00 0.00 0.00 80 1014.7
20260504030329 46 220 0.0 0.0 0.00 0.00 0.00 80 1014.5
20260504025825 46 220 0.0 0.0 0.00 0.00 0.00 80 1014.6
20260504025322 46 220 0.0 0.0 0.00 0.00 0.00 81 1014.7
20260504024819 46 220 0.0 0.0 0.00 0.00 0.00 81 1014.6
20260504024315 46 220 0.0 0.0 0.00 0.00 0.00 80 1014.6
20260504023812 46 220 0.0 0.0 0.00 0.00 0.00 79 1014.8
20260504023309 46 220 0.0 0.0 0.00 0.00 0.00 78 1014.5
20260504022805 46 220 0.0 0.0 0.00 0.00 0.00 78 1014.4
20260504022301 46 220 0.0 0.0 0.00 0.00 0.00 78 1014.4
20260504021758 46 220 0.0 0.0 0.00 0.00 0.00 77 1014.5
20260504021256 46 220 0.0 0.0 0.00 0.00 0.00 77 1014.5
20260504020752 46 220 0.0 0.0 0.00 0.00 0.00 79 1014.2
20260504020249 46 220 0.0 0.0 0.00 0.00 0.00 77 1014.3
20260504015745 46 220 0.0 0.0 0.00 0.00 0.00 75 1014.3
20260504015242 46 220 0.0 0.0 0.00 0.00 0.00 73 1014.3
20260504014737 46 220 0.0 0.0 0.00 0.00 0.00 77 1014.5
20260504014234 47 220 0.0 0.0 0.00 0.00 0.00 73 1014.2
20260504013732 47 220 0.0 0.0 0.00 0.00 0.00 74 1014.5
20260504013229 47 220 0.0 0.0 0.00 0.00 0.00 72 1014.4
20260504012726 47 220 0.0 0.0 0.00 0.00 0.00 70 1014.5
20260504012224 47 220 0.0 0.0 0.00 0.00 0.00 71 1014.3
20260504011720 48 220 0.0 0.0 0.00 0.00 0.00 69 1014.6
20260504011217 48 220 0.0 0.0 0.00 0.00 0.00 68 1014.2
20260504010713 49 220 0.0 0.0 0.00 0.00 0.00 66 1014.4
20260504010209 49 220 0.0 0.0 0.00 0.00 0.00 66 1014.3
20260504005705 50 220 0.0 0.0 0.00 0.00 0.00 67 1014.0
20260504005202 50 220 0.0 0.0 0.00 0.00 0.00 64 1014.2
20260504004700 50 220 0.0 0.0 0.00 0.00 0.00 66 1014.0
20260504004157 51 220 0.0 0.0 0.00 0.00 0.00 62 1014.2
20260504003653 51 220 0.0 0.0 0.00 0.00 0.00 61 1014.4
20260504003151 52 220 0.0 0.0 0.00 0.00 0.00 61 1014.1
20260504002647 53 220 0.0 0.0 0.00 0.00 0.00 57 1014.1
20260504002145 53 220 0.0 0.0 0.00 0.00 0.00 58 1014.0
20260504001643 54 220 0.0 0.0 0.00 0.00 0.00 56 1014.0
20260504001138 54 220 0.0 0.0 0.00 0.00 0.00 55 1014.1
20260504000636 55 220 0.0 0.0 0.00 0.00 0.00 57 1014.0
20260504000133 55 220 0.0 0.0 0.00 0.00 0.00 50 1013.8
20260503235631 56 220 0.0 0.0 0.00 0.00 0.00 50 1013.8
20260503235127 56 220 0.0 0.0 0.00 0.00 0.00 54 1014.1
20260503234626 57 220 0.0 0.0 0.00 0.00 0.00 50 1013.9
20260503234123 57 220 0.0 0.0 0.00 0.00 0.00 48 1014.0
20260503233620 58 220 0.0 0.0 0.00 0.00 0.00 42 1014.4
20260503233116 59 220 0.0 0.0 0.00 0.00 0.00 42 1014.1
20260503232613 59 220 0.0 0.0 0.00 0.00 0.00 36 1014.1
20260503232110 60 220 0.0 1.0 0.00 0.00 0.00 48 1014.3
20260503231608 60 149 0.0 0.0 0.00 0.00 0.00 41 1014.3
20260503231104 60 148 0.0 0.0 0.00 0.00 0.00 36 1014.4
20260503230601 60 32 2.0 2.0 0.00 0.00 0.00 35 1014.3
20260503230058 60 344 0.0 1.0 0.00 0.00 0.00 35 1014.3
20260503225555 60 355 0.0 0.0 0.00 0.00 0.00 37 1014.4
20260503225050 60 354 0.0 1.0 0.00 0.00 0.00 43 1014.6
20260503224548 60 356 0.0 0.0 0.00 0.00 0.00 34 1014.2
20260503224046 60 356 0.0 0.0 0.00 0.00 0.00 40 1014.6
20260503223544 60 157 1.0 1.0 0.00 0.00 0.00 34 1014.7
20260503223039 60 157 0.0 2.0 0.00 0.00 0.00 35 1014.5
20260503222537 60 309 2.0 3.0 0.00 0.00 0.00 34 1014.4
20260503222035 61 317 0.0 1.0 0.00 0.00 0.00 35 1014.5
20260503221533 61 318 0.0 0.0 0.00 0.00 0.00 33 1014.4
20260503221030 61 318 0.0 1.0 0.00 0.00 0.00 37 1014.5
20260503220526 60 318 1.0 2.0 0.00 0.00 0.00 34 1014.8
20260503220023 60 275 1.0 2.0 0.00 0.00 0.00 32 1014.9
20260503215520 60 226 1.0 2.0 0.00 0.00 0.00 33 1014.6
20260503215017 61 227 0.0 2.0 0.00 0.00 0.00 33 1014.7
20260503214516 61 307 2.0 3.0 0.00 0.00 0.00 32 1014.8
20260503214012 61 349 1.0 10.0 0.00 0.00 0.00 34 1014.6
20260503213511 60 345 0.0 1.0 0.00 0.00 0.00 33 1014.6
20260503213007 60 346 5.0 7.0 0.00 0.00 0.00 33 1014.9
20260503212504 61 256 0.0 1.0 0.00 0.00 0.00 33 1014.9
20260503212001 60 121 0.0 2.0 0.00 0.00 0.00 35 1014.8
20260503211458 60 223 0.0 4.0 0.00 0.00 0.00 36 1015.0
20260503210954 60 223 0.0 1.0 0.00 0.00 0.00 37 1014.8
20260503210451 60 276 2.0 3.0 0.00 0.00 0.00 33 1014.9
20260503205951 60 351 2.0 3.0 0.00 0.00 0.00 35 1015.0
20260503205448 61 250 1.0 2.0 0.00 0.00 0.00 33 1015.1
20260503204944 60 220 0.0 1.0 0.00 0.00 0.00 33 1014.9
20260503204442 60 266 0.0 3.0 0.00 0.00 0.00 34 1015.3
20260503203939 60 27 2.0 3.0 0.00 0.00 0.00 33 1015.0
20260503203437 60 11 4.0 4.0 0.00 0.00 0.00 33 1015.4
20260503202933 60 266 2.0 2.0 0.00 0.00 0.00 32 1015.5
20260503202431 60 340 2.0 4.0 0.00 0.00 0.00 37 1015.5
20260503201930 60 301 4.0 7.0 0.00 0.00 0.00 34 1015.7
20260503201426 60 225 0.0 2.0 0.00 0.00 0.00 39 1015.7
20260503200924 60 272 2.0 3.0 0.00 0.00 0.00 34 1015.7
20260503200419 60 300 2.0 4.0 0.00 0.00 0.00 35 1016.0
20260503195917 59 346 0.0 3.0 0.00 0.00 0.00 35 1015.8
20260503195414 59 235 1.0 1.0 0.00 0.00 0.00 37 1016.0
20260503194910 59 97 2.0 2.0 0.00 0.00 0.00 40 1016.0
20260503194407 59 262 0.0 2.0 0.00 0.00 0.00 32 1016.3
20260503193903 59 24 1.0 4.0 0.00 0.00 0.00 34 1016.4
20260503193358 60 233 1.0 2.0 0.00 0.00 0.00 34 1016.4
20260503192854 60 21 1.0 2.0 0.00 0.00 0.00 34 1016.6
20260503192350 58 232 0.0 2.0 0.00 0.00 0.00 40 1016.6
20260503191847 59 350 2.0 3.0 0.00 0.00 0.00 34 1016.6
20260503191344 59 302 1.0 3.0 0.00 0.00 0.00 33 1016.5
20260503190840 60 83 1.0 3.0 0.00 0.00 0.00 41 1016.9
20260503190338 59 171 0.0 2.0 0.00 0.00 0.00 37 1017.3
20260503185835 60 169 1.0 3.0 0.00 0.00 0.00 37 1017.1
20260503185331 58 245 1.0 3.0 0.00 0.00 0.00 36 1017.4
20260503184826 59 340 2.0 2.0 0.00 0.00 0.00 37 1017.3
20260503184322 59 210 2.0 6.0 0.00 0.00 0.00 34 1017.3
20260503183818 58 348 3.0 4.0 0.00 0.00 0.00 37 1017.4
20260503183315 60 64 1.0 2.0 0.00 0.00 0.00 37 1017.5
20260503182813 59 350 1.0 3.0 0.00 0.00 0.00 33 1017.5
20260503182312 60 289 1.0 2.0 0.00 0.00 0.00 33 1017.8
20260503181809 58 235 1.0 3.0 0.00 0.00 0.00 35 1017.9
20260503181306 58 77 0.0 3.0 0.00 0.00 0.00 42 1017.9
20260503180802 59 63 1.0 2.0 0.00 0.00 0.00 37 1017.9
20260503180300 59 221 2.0 8.0 0.00 0.00 0.00 34 1017.9
20260503175755 60 242 3.0 4.0 0.00 0.00 0.00 33 1017.8
20260503175254 60 208 1.0 3.0 0.00 0.00 0.00 35 1018.1
20260503174749 59 224 0.0 3.0 0.00 0.00 0.00 35 1017.9
20260503174248 59 268 0.0 3.0 0.00 0.00 0.00 36 1018.2
20260503173748 59 138 1.0 4.0 0.00 0.00 0.00 39 1017.9
20260503173244 61 238 2.0 3.0 0.00 0.00 0.00 33 1018.1
20260503172741 59 52 2.0 2.0 0.00 0.00 0.00 39 1017.9
20260503172238 60 253 1.0 2.0 0.00 0.00 0.00 38 1018.2
20260503171734 58 218 1.0 2.0 0.00 0.00 0.00 36 1018.2
20260503171232 57 260 2.0 3.0 0.00 0.00 0.00 40 1018.5
20260503170729 59 273 2.0 3.0 0.00 0.00 0.00 35 1018.7
20260503170225 58 248 0.0 2.0 0.00 0.00 0.00 38 1018.6
20260503160147 56 289 1.0 3.0 0.00 0.00 0.00 44 1019.4
20260503150617 53 146 2.0 2.0 0.00 0.00 0.00 48 1019.8
20260503150113 53 272 2.0 2.0 0.00 0.00 0.00 52 1019.9
20260503131007 41 217 0.0 1.0 0.00 0.00 0.00 87 1020.1
20260503130504 40 217 0.0 0.0 0.00 0.00 0.00 88 1020.2
20260503110355 29 216 0.0 0.0 0.00 0.00 0.00 99 1018.7
20260503090246 31 216 0.0 0.0 0.00 0.00 0.00 98 1018.2
20260503081214 32 216 0.0 0.0 0.00 0.00 0.00 98 1017.6
20260503080709 32 216 0.0 0.0 0.00 0.00 0.00 98 1017.5
20260503080207 33 216 0.0 0.0 0.00 0.00 0.00 98 1017.5